sat.trackr.live / text

‹ back to catalog

STARLINK-34728

NORAD 65455 · 2025-194X

PAYLOAD ACTIVE UNKNOWN

§ Identity

Operator
Country
US
Launch date
2025-09-03
Launch site
AFWTR
Launch vehicle
Mass (kg)
RCS (m²)

Purposes: comms

External: N2YO · Heavens-Above · Gunter

§ Orbital elements

Epoch: 2026-05-25T02:42:26.232768Z

Period
95.64 min
Inclination
97.4496°
Eccentricity
0.0002179
Mean motion
15.05655636 rev/d
Perigee alt
548.0 km
Apogee alt
551.0 km
Semi-major
6,927.6 km
B*
1.5687e-4
RAAN
359.2885°
Arg perigee
78.4916°
Mean anomaly
281.6556°
Rev number
4,114

§ Raw data

STARLINK-347281 65455U 25194X   26145.11280362  .00002206  00000+0  15687-3 0  99962 65455  97.4496 359.2885 0002179  78.4916 281.6556 15.05655636 41145

JSON: /api/v1/satellites/65455 · /tle

For live sub-satellite position, see the globe view (requires WebGL).

§ Visibility from observer

Set your observer location to see the next 7 days of passes ≥ 10°. The values pass through the URL so the page stays shareable.

No JS? Fill the form by hand. The geolocation button needs JavaScript.